Regional Weather Roundup
Issued by NWS

Home | Current Version | Previous Version | Text Only | Print | Product List | Glossary Off
Versions: 1 2 3 4 5 6 7 8 9 10 11 12 13 14 15 16 17 18 19 20 21 22 23 24 25 26 27 28 29 30 31 32 33 34 35 36 37 38 39 40 41 42 43 44 45 46 47 48 49 50

000
ASUS43 KLMK 261502
RWRKY
KENTUCKY REGIONAL WEATHER ROUNDUP
NATIONAL WEATHER SERVICE LOUISVILLE KY
1100 AM EDT SUN MAR 26 2017

NOTE "FAIR" INDICATES FEW OR NO CLOUDS BELOW 12,000 FEET
WITH NO SIGNIFICANT WEATHER AND/OR OBSTRUCTIONS TO VISIBILITY.

KYZ001>023-026-027-061>063-070>075-261600-
WESTERN AND SOUTH CENTRAL KENTUCKY

CITY           SKY/WX    TMP DP  RH WIND       PRES   REMARKS
PADUCAH        CLOUDY    57  51  80 W12       29.95S
HENDERSON      CLOUDY    61  54  77 S13       29.93S
OWENSBORO      CLOUDY    62  58  86 SW15      29.96S
HOPKINSVILLE   CLOUDY    60  58  96 S8        29.99R
BOWLING GREEN  CLOUDY    63  56  78 S13       30.00S
GLASGOW        NOT AVBL
$$

KYZ024-025-028>034-038-045-046-053-261600-
NORTH CENTRAL KENTUCKY

CITY           SKY/WX    TMP DP  RH WIND       PRES   REMARKS
LOUISVILLE/SDF CLOUDY    62  56  80 S9        29.97S
LOUISVILLE/LOU CLOUDY    61  56  83 S7        29.98S
FORT KNOX      CLOUDY    59  59  98 S10       29.97R
$$

KYZ035>037-039>044-047>052-055>060-089>105-261600-
NORTHEAST KENTUCKY

CITY           SKY/WX    TMP DP  RH WIND       PRES   REMARKS
LEXINGTON      LGT RAIN  60  56  86 S13       30.01S
COVINGTON      RAIN      58  56  93 S7        29.99F FOG
FRANKFORT      LGT RAIN  60  56  86 S8        29.98S
$$

KYZ054-064>069-076>088-106>120-261600-
SOUTHEAST KENTUCKY

CITY           SKY/WX    TMP DP  RH WIND       PRES   REMARKS
JACKSON        CLOUDY    61  55  81 VRB6      30.06S
LONDON         LGT RAIN  62  54  74 S7        30.04S
SOMERSET       NOT AVBL
MIDDLESBORO    CLOUDY    61  56  83 SE5       30.09S
MONTICELLO     LGT RAIN  60  57  89 VRB5      30.05R
$$




USA.gov is the U.S. government's official web portal to all federal, state and local government web resources and services.